Content
SEND FEEDBACK

Daily
Averages
Monthly
Summary
United States of America

CALUMET, ARIZONA


Home > North America > United States > Arizona
Elevation: 4140 feet     Latitude: 31 21N     Longitude: 109 33W

WEATHER
 
SELECT A DAY
Number of Records: 172,930;   Date Range: 1/1/95 - 10/20/14
 
SHARE

PRINT THIS DATA

[ ← Previous Day ]
WEATHER ALMANAC - JANUARY 23, 2013
[ Next Day → ]
[ °C ]   °F
Weather ElementAverageHighLow
Temperature50.4 °F72 °F (3:56 pm)30 °F (5:56 am)
Dewpoint22.7 °F28 °F (4:56 pm)16 °F (2:56 am)
Humidity37.2 %64 % (6:56 am)19 % (2:56 pm)
Barometer30.19 in30.27 in (9:56 am)30.13 in (2:56 pm)
Wind Speed2.8 mph10.4 mph (3:56 am)
Weather ElementAverage
Visibility10 mi
Wind DirectionENE (57.8 °)

Weather ElementTotal
Precipitation---
Heating Degree Days14 (Base 65)
Growing Degree Days1 (Base 50)
Averaged from 23 records on January 23, 2013
WEATHER CONDITIONS BREAKOUT
WIND DIRECTION BREAKOUT
WEATHER BY HOUR - JANUARY 23, 2013
[ °C ]   °F
Local TimeTemperatureDewpointHumidityBarometerVisibilityWind DirectionWind SpeedGust SpeedPrecipitationEventsConditions
1:56 AM36.0 °F18.0 °F48 %30.17 in10.0 miENE (60°)4.6 mphClear
2:56 AM32.0 °F16.0 °F52 %30.17 in10.0 miCalmClear
3:56 AM34.0 °F18.0 °F52 %30.17 in10.0 miNorth (10°)10.4 mphClear
4:56 AM30.9 °F17.1 °F57 %30.18 in10.0 miCalmClear
5:56 AM30.0 °F17.1 °F59 %30.21 in10.0 miEast (100°)4.6 mphClear
6:56 AM30.9 °F19.9 °F64 %30.24 in10.0 miNE (40°)8.1 mphClear
7:56 AM33.1 °F19.0 °F56 %30.25 in10.0 miWest (280°)4.6 mphClear
8:56 AM44.1 °F21.9 °F42 %30.25 in10.0 miCalmClear
9:56 AM51.1 °F23.0 °F33 %30.27 in10.0 miCalmClear
10:56 AM59.0 °F24.1 °F26 %30.26 in10.0 miCalmClear
11:56 AM64.0 °F24.1 °F22 %30.22 in10.0 miCalmClear
12:56 PM68.0 °F25.0 °F20 %30.17 in10.0 miCalmClear
1:56 PM70.0 °F27.0 °F20 %30.15 in10.0 miCalmClear
2:56 PM71.1 °F27.0 °F19 %30.13 in10.0 miSouth (170°)5.8 mphClear
3:56 PM72.0 °F27.0 °F19 %30.14 in10.0 miSSE (160°)6.9 mphClear
4:56 PM71.1 °F28.0 °F20 %30.13 in10.0 miSSE (150°)4.6 mphClear
5:56 PM66.0 °F26.1 °F22 %30.16 in10.0 miSouth (170°)4.6 mphClear
6:56 PM55.9 °F25.0 °F30 %30.19 in10.0 miEast (100°)3.5 mphClear
7:56 PM52.0 °F24.1 °F34 %30.19 in10.0 miEast (90°)6.9 mphClear
8:56 PM50.0 °F24.1 °F36 %30.19 in10.0 miCalmClear
9:56 PM45.0 °F21.9 °F40 %30.19 in10.0 miCalmClear
10:56 PM45.0 °F23.0 °F42 %30.18 in10.0 miCalmClear
11:56 PM46.9 °F25.0 °F42 %30.16 in10.0 miCalmClear
Hourly data recorded from KDUG, located miles away from Calumet, Arizona







STORIES FROM OUR PARTNERS